www.pogodaiklimat.ru

Погода и климат >> Архив погоды >> Туркменистан >> Бахарлы


ПОГОДА в Бахарлы

  • Прогноз погоды в Бахарлы
  • Монитор погоды в Бахарлы

АРХИВ ПОГОДЫ в Бахарлы

Время (UTC), дата Ветер
(напр.,м/с)
 
Видим.   Явления Облачность Т
(С)
Тd
(С)
f
(%)
Тe
(С)
Тes
(С)
Комфортность P
(гПа)
Po
(гПа)
Тmin
(С)
Tmax
(С)
R
(мм)
R24
(мм)
S
(см)
03 9.06 З 3 20 км 8/6 300 м
[Cb cap Ac As]
+27.6 +15.9 49 +31 +32 душно 1014.3 996.2 +26.5
06 9.06 СЗ 6 20 км 8/0 2000 м
[Ac cast]
+30.1 +13.2 36 +32 +34 жарко 1015.9 997.9 +26.5
09 9.06 СЗ 4 20 км 8/4 600 м
[Cb cap Ac As]
+32.4 +9.3 24 +31 +36 жарко 1015.8 997.9
12 9.06 В 2 20 км 10/0 2000 м
[Ac As]
+28.8 +10.3 32 +29 +32 жарко 1016.7 998.5
15 9.06 ЮВ 2 20 км 8/0 2000 м
[Ac As]
+28.6 +9.2 30 +29 +29 жарко 1016.5 998.3 +32.6
18 9.06 СВ 1 2000 м 8/0 2000 м
[Ac cast]
+26.8 +11.7 39 +28 +28 жарко 1018.0 999.7 +32.6
21 9.06 ЮЗ 1 2000 м 8/0 2000 м
[Ac cast]
+24.9 +12.8 47 +27 +27 жарко 1016.9 998.5
00 10.06 ЮВ 1 10 км ясно +21.5 +12.9 58 +24 +24 комфорт 1019.1 1000.6
03 10.06 ЮВ 1 50 км ясно +24.1 +11.1 44 +25 +30 комфорт 1018.7 1000.3 +21.1
06 10.06 ЮВ 1 20 км ясно +28.8 +8.4 28 +28 +47 жарко 1019.4 1001.2 +21.1
09 10.06 ЮВ 1 20 км ясно +30.6 +8.1 25 +30 +53 опасность
солнечного
удара
1018.5 1000.5
12 10.06 В 1 20 км ясно +31.4 +9.0 25 +31 +41 жарко 1017.4 999.4 +31.6
15 10.06 штиль 0 20 км ясно +30.2 +5.0 20 +28 +29 жарко 1017.2 999.2 +31.6
18 10.06 ЮВ 1 2000 м ясно +25.2 +7.1 31 +25 +25 комфорт 1018.9 1000.5 +31.6
21 10.06 штиль 0 2000 м ясно +22.3 +7.6 39 +23 +23 комфорт 1019.9 1001.4
00 11.06 штиль 0 10 км ясно +18.8 +7.4 47 +19 +19 1020.4 1001.8
03 11.06 В 2 20 км ясно +23.9 +7.3 34 +24 +28 комфорт 1019.1 1000.7 +18.5
06 11.06 ЮВ 3 20 км ясно +29.0 +7.0 25 +28 +42 жарко 1018.2 1000.0 +18.5
09 11.06 В 4 20 км ясно +31.4 +6.7 21 +30 +43 жарко 1017.8 999.8
12 11.06 ЮВ 2 20 км ясно +32.8 +6.8 20 +31 +40 жарко 1015.0 997.2
15 11.06 ЮВ 1 20 км ясно +31.0 +5.9 21 +29 +30 жарко 1015.0 997.1 +33.0
18 11.06 ЮВ 1 2000 м ясно +25.2 +11.0 41 +26 +26 жарко 1015.2 996.9 +33.0
21 11.06 Ю 1 2000 м ясно +21.9 +13.4 58 +25 +25 комфорт 1013.1 994.7
00 12.06 З 1 10 км ясно +20.3 +8.0 45 +23 +23 комфорт 1012.8 994.2
03 12.06 ЮВ 1 20 км 4/0
[Ci]
+25.1 +7.0 31 +25 +29 комфорт 1013.0 994.7 +19.9
06 12.06 В 4 20 км 8/0
[Ci]
+30.2 +5.6 21 +29 +38 жарко 1011.8 993.9 +19.9
09 12.06 ЮВ 5 20 км 8/0
[Ci]
+33.4 +6.4 19 +31 +40 жарко 1010.3 992.5
12 12.06 ЮВ 3 20 км 8/0
[Cs]
+34.6 +5.9 17 +32 +39 жарко 1009.5 991.9
15 12.06 ЮВ 2 20 км 8/0
[Cs]
+32.2 +7.8 22 +31 +31 жарко 1008.0 990.3 +34.8
18 12.06 ЮВ 1 2000 м ясно +27.2 +7.4 29 +27 +27 жарко 1009.6 991.5 +34.8
21 12.06 ЮЗ 2 2000 м ясно +24.4 +7.3 33 +25 +25 комфорт 1009.0 990.8
00 13.06 Ю 2 10 км ясно +20.3 +11.0 55 +23 +23 комфорт 1007.8 989.3
03 13.06 Ю 2 20 км ясно +24.5 +7.7 34 +25 +28 комфорт 1008.3 990.1 +19.9
06 13.06 ЮВ 4 20 км ясно +32.3 +7.1 21 +31 +42 жарко 1007.2 989.5 +19.9
09 13.06 ЮВ 2 20 км 4/0 2000 м
[Ac lent]
+35.7 +5.9 16 +33 +47 жарко 1006.0 988.4
12 13.06 В 2 20 км 4/0 2000 м
[Ac lent]
+36.7 +5.3 14 +34 +40 очень
жарко
1004.8 987.4
15 13.06 Ю 1 20 км ясно +34.8 +7.0 18 +33 +33 жарко 1004.9 987.4 +36.9
18 13.06 ЮЗ 1 10 км ясно +29.4 +10.2 30 +29 +29 жарко 1006.4 988.3 +36.9
21 13.06 З 2 10 км ясно +29.8 +8.8 27 +29 +29 жарко 1005.4 987.5
00 14.06 З 1 10 км 3/0 2000 м
[Ac cast]
+27.0 +14.6 47 +30 +30 душно 1006.7 988.7
03 14.06 С 1 20 км ясно +27.3 +15.9 50 +31 +35 душно 1007.2 989.2 +26.8
06 14.06 СЗ 1 20 км ясно +34.1 +14.1 30 +35 +54 опасность
солнечного
удара
1007.5 989.9 +26.8
09 14.06 СЗ 2 20 км 4/4 600 м
[Cu med, cong]
+36.3 +12.1 23 +36 +48 очень
жарко
1007.4 989.9
12 14.06 СЗ 2 20 км 4/4 600 м
[Cu med, cong]
+37.1 +11.3 21 +36 +42 очень
жарко
1006.5 989.0
15 14.06 СЗ 1 20 км 4/0 2000 м
[Ac As]
+34.0 +13.9 30 +35 +35 очень
жарко
1006.8 989.4 +37.3
18 14.06 ЮЗ 6 10 км 4/0 2000 м
[Ac As]
+30.8 +11.9 31 +31 +31 жарко 1009.1 991.2 +37.3
21 14.06 ЮЗ 4 10 км 3/0 2000 м
[Ac lent]
+30.6 +11.3 30 +31 +31 жарко 1008.7 990.8
00 15.06 штиль 0 10 км ясно +25.9 +9.0 34 +26 +26 жарко 1009.4 991.5
03 15.06 штиль 0 20 км ясно +27.2 +13.7 43 +29 +34 жарко 1011.7 993.6 +25.7
06 15.06 З 1 20 км ясно +31.6 +15.8 39 +34 +53 опасность
солнечного
удара
1012.4 994.5 +25.7
09 15.06 Ю 1 20 км ясно +35.7 +13.3 26 +36 +60 опасность
солнечного
удара
1011.7 994.1
12 15.06 З 3 20 км ясно +37.5 +12.8 23 +37 +45 очень
жарко
1010.1 992.6
15 15.06 ЮЗ 2 20 км ясно +36.5 +13.6 25 +37 +37 очень
жарко
1010.4 992.8 +37.5
18 15.06 З 1 10 км ясно +29.8 +13.9 38 +32 +32 душно 1009.7 991.8 +37.5
21 15.06 З 1 10 км ясно +26.0 +13.0 45 +28 +28 жарко 1011.2 993.0
00 16.06 ЮЗ 1 10 км 4/0
[Ci]
+23.3 +11.0 46 +26 +26 жарко 1011.1 992.7

 

Местоположение метеостанции Бахарлы (Ахалский велаят, Туркменистан): широта 38.43 долгота 57.42 высота над уровнем моря 159 м.

В архиве по умолчанию представлена погода в Бахарлы за последнюю неделю. Архивные данные за месяц целиком и за предыдущие месяцы, начиная с января 2011 года, Вы можете получить, выбрав интересующий диапазон дат из раскрывающегося списка и нажав кнопку "Ввод!".


*Определитесь, кто Вы:
робот инопланетянин человек

Внимание! Время в таблицах - всемирное. Для получения местного времени необходимо прибавить поправку, которая равна 5 ч.

Смотрите также архив погоды в соседних городах и на ближайших метеорологических станциях:

Погода в Unknown (Туркменистан) (60 км)
Погода в Гаррыгале (Балканский велаят, Туркменистан) (98 км)
Погода в Ашхабаде (город Ашхабад, Туркменистан) (98 км)
Погода в Боджнурде (Иран) (107 км)
Погода в Сердаре (Балканский велаят, Туркменистан) (116 км)
Погода в Мараве Таппе (Иран) (141 км)
Погода в Ербенте (Ахалский велаят, Туркменистан) (142 км)
Погода в Кучане (Иран) (179 км)
Погода в Газаджаке (Лебапский велаят, Туркменистан) (188 км)
Погода в Дервезе (Дашогузский велаят, Туркменистан) (215 км)

Пояснения к столбцам:

Ветер - указаны скорость ветра в м/с - средняя за 10 мин, порывы в срок и между сроками (в фигурных скобках) и направление, откуда дует ветер: С - северный, СВ - северо-восточный, В - восточный, ЮВ - юго-восточный, Ю - южный, ЮЗ - юго-западный, З - западный, СЗ - северо-западный.
Видимость - горизонтальная дальность видимости в метрах или километрах. При видимости от 1 до 10 км при отсутствии осадков обычно наблюдается дымка, при ухудшении видимости до 1 км и менее - туман. В сухую погоду видимость может ухудшаться дымом, пылью или мглою.
Явления - указаны атмосферные явления, наблюдавшиеся в срок или в последний час перед сроком; фигурными скобками обозначены явления, наблюдавшиеся между сроками (за 1-3 часа до срока); квадратными скобками обозначены град или гололедные отложения с указанием их диаметра в мм.
Облачность - указаны через наклонную черту общая и нижняя облачность в баллах и высота нижней границы облаков в метрах; квадратными скобками обозначены формы облаков: Ci - перистые, Cs - перисто-слоистые, Cc - перисто-кучевые, Ac - высококучевые, As - высокослоистые, Sc - слоисто-кучевые, Ns - слоисто-дождевые, Cu - кучевые, Cb - кучево-дождевые. Подробнее классификацию облаков см. в Атласе облаков (PDF).
T - Температура воздуха - температура, измеренная на высоте 2 м над землей.
Td - Температура точки росы - температура, при понижении до которой содержащийся в воздухе водяной пар достигнет насыщения.
f - Относительная влажность воздуха - влажноcть воздуха, измеренная на высоте 2 м над землей.
Te - Эффективная температура - температура, которую ощущает одетый по сезону человек в тени. Характеристика душности погоды. При расчете учитывается влияние влажности воздуха и скорости ветра на теплоощущения человека.
Tes - Эффективная температура на солнце - температура, которую ощущает человек, с поправкой на солнечный нагрев. Характеристика знойности погоды. Зависит от высоты солнца над горизонтом, облачности и скорости ветра. Ночью, в пасмурную погоду, а также при ветре 12 м/с и более поправка равна нулю.
P - Атмосферное давление - приведенное к уровню моря атмосферное давление.
Po - Атмосферное давление - измеренное на уровне метеостанции атмосферное давление.
Tmin - Минимальная температура - минимум температуры воздуха на высоте 2 м над землей.
Tmax - Максимальная температура - максимум температуры воздуха на высоте 2 м над землей.
R - Количество осадков - Количество выпавших осадков за период времени, мм. При наведении курсора мыши на число - период времени, за который выпало указанное количество осадков.
R24 - Количество осадков - Количество выпавших осадков за 24 часа, мм.
S - Снежный покров - Высота снежного покрова, см. При наведении курсора мыши на число - состояние снежного покрова и степень покрытия местности в баллах.